Regional Weather Roundup
Issued by NWS State College, PA

Home | Current Version | Previous Version | Text Only | Print | Product List | Glossary Off
Versions: 1 2 3 4 5 6 7 8 9 10 11 12 13 14 15 16 17 18 19 20 21 22 23 24 25 26 27 28 29 30 31 32 33 34 35 36 37 38 39 40 41 42 43 44 45 46 47 48 49 50

000
ASUS41 KCTP 292010
RWRCTP

REGIONAL WEATHER ROUNDUP
NATIONAL WEATHER SERVICE STATE COLLEGE PA
400 PM EDT MON JUN 29 2015

Note: "fair" indicates few or no clouds below 12,000 feet with no
significant weather and/or obstructions to visibility.

* = STATION THAT DOES NOT REPORT PRECIPITATION /E.G. RAIN...SNOW...ETC/
    THUNDER OR FOG.

PAZ002>004-007>009-013>016-020>023-029>032-292100-
WESTERN PENNSYLVANIA

CITY           SKY/WX    TMP DP  RH WIND       PRES   REMARKS
ERIE           CLOUDY    74  53  48 NW6       29.90F
MEADVILLE      CLOUDY    69  56  62 SW7       29.94F
FRANKLIN*      CLOUDY    70  54  56 W6        29.95F
NEW CASTLE     FAIR      71  62  73 CALM      29.93F
BEAVER COUNTY  RAIN      66  61  82 CALM      29.94S
BUTLER*        CLOUDY    72  57  60 S3        29.96S
PITTSBURGH INT LGT RAIN  66  60  81 S3        29.94S
PITTSBURGH     LGT RAIN  70  53  54 S5        29.93F
INDIANA*       SUNNY     73  55  53 VRB3      29.98F
LATROBE        CLOUDY    73  57  56 SW7       29.95F
WASHINGTON CO* NOT AVBL
$$

PAZ004>006-010>012-017>019-024>028-033>037-041-042-045-046-049>053-292100-
CENTRAL PENNSYLVANIA

CITY           SKY/WX    TMP DP  RH WIND       PRES   REMARKS
BRADFORD       LGT RAIN  66  56  70 SW7       29.96S
DUBOIS         CLOUDY    65  60  84 CALM      29.95F
CLEARFIELD     PTSUNNY   73  55  53 W5        29.94F
JOHNSTOWN      MOSUNNY   73  51  46 W8        29.97F
ALTOONA        PTSUNNY   75  51  43 CALM      29.95F
STATE COLLEGE  PTSUNNY   75  57  53 W9        29.93F
WILLIAMSPORT   MOSUNNY   79  55  43 W10       29.88F
SELINSGROVE    MOSUNNY   78  57  48 MISG      29.91F
FT INDIANTOWN  SUNNY     79  57  47 VRB5      29.92F
CAPITAL CITY   MOSUNNY   79  56  45 W8G17     29.92F
HARRISBURG     MOSUNNY   79  57  46 W5        29.91F
YORK           MOSUNNY   77  56  48 VRB6      29.93F
$$

PAZ038>040-043-044-047-048-054-055-060>062-067>071-292100-
EASTERN PENNSYLVANIA

CITY           SKY/WX    TMP DP  RH WIND       PRES   REMARKS
SCRANTON       PTSUNNY   74  56  53 SW6       29.91F
MOUNT POCONO   PTSUNNY   69  54  58 W10       29.95F
ALLENTOWN      MOSUNNY   77  57  50 S3        29.92F
QUAKERTOWN*    MOCLDY    75  57  53 W7        29.94F
READING        MOSUNNY   77  56  48 W7        29.92S
LANCASTER      MOSUNNY   78  59  51 NW9       29.93F
COATESVILLE    PTCLDY    75  57  53 W6        29.96F
POTTSTOWN      MOSUNNY   75  57  53 W6        29.95S
BLUE BELL      MOSUNNY   77  59  53 W5        29.93S
DOYLESTOWN     MOSUNNY   74  55  51 W10       29.92F
WILLOW GROVE   NOT AVBL
NORTH PHILA    PTSUNNY   79  55  43 W8        29.94S
PHILADELPHIA   MOSUNNY   80  55  42 W9        29.93F
$$


USA.gov is the U.S. government's official web portal to all federal, state and local government web resources and services.